Terminal Aerodrome Forecast
Issued by NWS Paducah, KY

Home | Current Version | Previous Version | Text Only | Print | Product List | Glossary On
Versions: 1 2 3 4 5 6 7 8 9 10 11 12 13 14
000
FTUS43 KPAH 241700
TAFEVV
TAF
KEVV 241720Z 2418/2518 VRB04KT P6SM SCT035 BKN250
     FM250000 VRB02KT P6SM SCT250
     FM250900 20002KT 6SM BR SCT020
     FM251300 28006KT P6SM SKC=

USA.gov is the U.S. government's official web portal to all federal, state and local government web resources and services.